Content
SEND FEEDBACK

Daily
Averages
Monthly
Summary
United States of America

CHILLICOTHE, MISSOURI


Home > North America > United States > Missouri
Elevation: 700 feet     Latitude: 39 45N     Longitude: 093 33W

WEATHER
 
SELECT A DAY
Number of Records: 136,277;   Date Range: 5/21/98 - 7/27/14
 
SHARE

PRINT THIS DATA

[ ← Previous Day ]
WEATHER ALMANAC - JANUARY 7, 2013
[ Next Day → ]
[ °C ]   °F
Weather ElementAverageHighLow
Temperature35.3 °F45 °F (2:52 pm)25 °F (6:52 am)
Dewpoint23 °F26.1 °F (2:52 pm)18 °F (6:52 am)
Humidity61.9 %75 % (5:52 am)48 % (2:52 pm)
Barometer30.20 in30.33 in (1:52 am)30.09 in (11:52 pm)
Wind Speed8.6 mph15 mph (11:52 am)
Wind Gust19.6 mph (11:52 am)
Weather ElementAverage
Wind DirectionS (183.9 °)

Weather ElementTotal
Precipitation---
Heating Degree Days30 (Base 65)
Averaged from 23 records on January 7, 2013
WEATHER CONDITIONS BREAKOUT
WIND DIRECTION BREAKOUT
WEATHER BY HOUR - JANUARY 7, 2013
[ °C ]   °F
Local TimeTemperatureDewpointHumidityBarometerVisibilityWind DirectionWind SpeedGust SpeedPrecipitationEventsConditions
1:52 AM28.0 °F19.9 °F72 %30.33 inSouth (190°)5.8 mph
2:52 AM28.9 °F19.9 °F69 %30.33 inSouth (190°)10.4 mph
3:52 AM27.0 °F19.0 °F72 %30.31 inSouth (180°)5.8 mph
4:52 AM27.0 °F19.0 °F72 %30.30 inSouth (180°)8.1 mph
5:52 AM26.1 °F19.0 °F75 %30.30 inSouth (180°)6.9 mph
6:52 AM25.0 °F18.0 °F75 %30.30 inSouth (170°)5.8 mph
7:52 AM25.0 °F18.0 °F75 %30.30 inSSE (160°)5.8 mph
8:52 AM30.9 °F21.0 °F67 %30.29 inSouth (190°)6.9 mph
9:52 AM34.0 °F23.0 °F64 %30.28 inSouth (180°)10.4 mph
10:52 AM36.0 °F23.0 °F59 %30.27 inSSW (200°)13.8 mph
11:52 AM39.0 °F25.0 °F57 %30.21 inSouth (180°)15.0 mph19.6 mph
12:52 PM42.1 °F25.0 °F51 %30.17 inSouth (190°)11.5 mph
1:52 PM43.0 °F25.0 °F49 %30.14 inSouth (190°)11.5 mph
2:52 PM45.0 °F26.1 °F48 %30.13 inSouth (180°)12.7 mph
3:52 PM45.0 °F26.1 °F48 %30.12 inSouth (180°)12.7 mph
4:52 PM42.1 °F26.1 °F53 %30.11 inSouth (170°)9.2 mph
5:52 PM41.0 °F25.0 °F53 %30.10 inSouth (180°)6.9 mph
6:52 PM39.0 °F25.0 °F57 %30.12 inSouth (190°)6.9 mph
7:52 PM39.0 °F26.1 °F60 %30.12 inSouth (190°)6.9 mph
8:52 PM37.9 °F25.0 °F60 %30.12 inSouth (190°)5.8 mph
9:52 PM37.0 °F25.0 °F62 %30.11 inSouth (190°)6.9 mph
10:52 PM37.0 °F25.0 °F62 %30.10 inSouth (190°)6.9 mph
11:52 PM36.0 °F25.0 °F64 %30.09 inSouth (190°)5.8 mph
Hourly data recorded from KCDJ, located miles away from Chillicothe, Missouri







STORIES FROM OUR PARTNERS